• In France
  • List of Countries
  • For 7 days
  • Water Temperature
  • Satellite Maps
  • Weather Map
  • Weather Widgets
  • user-avatar
    Login

    Hourly Weather Pasto

    Today, 20 May, Sunday

    Time Temperature Precipitation Wind Pressure Humidity
    00:00 +10°C° 0.3 mm 1 mps 548 mmHg 90%
    01:00 +9°C° 0 mm 2 mps 548 mmHg 88%
    02:00 +9°C° 0.2 mm 2 mps 548 mmHg 88%
    03:00 +10°C° 0.2 mm 1 mps 548 mmHg 87%
    04:00 +10°C° 0.2 mm 1 mps 548 mmHg 87%
    05:00 +10°C° 0.1 mm 1 mps 548 mmHg 87%
    06:00 +11°C° 0.1 mm 1 mps 549 mmHg 86%
    07:00 +11°C° 0.1 mm 1 mps 549 mmHg 86%
    08:00 +12°C° 0.2 mm 2 mps 550 mmHg 83%
    09:00 +13°C° 0.2 mm 2 mps 551 mmHg 79%
    10:00 +13°C° 0.2 mm 3 mps 551 mmHg 76%
    11:00 +14°C° 0.4 mm 3 mps 551 mmHg 73%
    12:00 +14°C° 0.4 mm 3 mps 551 mmHg 71%
    13:00 +16°C° 0.4 mm 3 mps 551 mmHg 68%
    14:00 +14°C° 0.5 mm 3 mps 550 mmHg 70%
    15:00 +14°C° 0.5 mm 3 mps 550 mmHg 73%
    16:00 +15°C° 0.5 mm 2 mps 549 mmHg 75%
    17:00 +13°C° 0.3 mm 2 mps 549 mmHg 80%
    18:00 +12°C° 0.3 mm 2 mps 548 mmHg 85%
    19:00 +11°C° 0.3 mm 1 mps 548 mmHg 90%
    20:00 +11°C° 0.3 mm 1 mps 548 mmHg 90%
    21:00 +10°C° 0.3 mm 1 mps 548 mmHg 89%
    22:00 +10°C° 0.3 mm 1 mps 549 mmHg 89%
    23:00 +10°C° 0.2 mm 1 mps 548 mmHg 89%

    Tomorrow, 21 May, Monday

    Time Temperature Precipitation Wind Pressure Humidity
    00:00 +10°C° 0.2 mm 1 mps 548 mmHg 89%
    01:00 +10°C° 0.2 mm 1 mps 548 mmHg 89%
    02:00 +10°C° 0.1 mm 1 mps 548 mmHg 89%
    03:00 +10°C° 0.1 mm 1 mps 547 mmHg 90%
    04:00 +9°C° 0.1 mm 1 mps 547 mmHg 90%
    05:00 +10°C° 0.1 mm 1 mps 548 mmHg 87%
    06:00 +10°C° 0.1 mm 1 mps 548 mmHg 85%
    07:00 +11°C° 0.1 mm 1 mps 549 mmHg 83%
    08:00 +12°C° 0 mm 1 mps 550 mmHg 77%
    09:00 +14°C° 0 mm 2 mps 551 mmHg 71%
    10:00 +15°C° 0 mm 2 mps 552 mmHg 66%
    11:00 +16°C° 0.2 mm 2 mps 551 mmHg 65%
    12:00 +16°C° 0.2 mm 2 mps 551 mmHg 65%
    13:00 +17°C° 0.2 mm 2 mps 551 mmHg 64%
    14:00 +16°C° 0.5 mm 2 mps 550 mmHg 66%
    15:00 +16°C° 0.5 mm 2 mps 550 mmHg 69%
    16:00 +15°C° 0.5 mm 2 mps 549 mmHg 71%
    17:00 +14°C° 0.4 mm 2 mps 548 mmHg 78%
    18:00 +13°C° 0.4 mm 1 mps 548 mmHg 85%
    19:00 +11°C° 0.4 mm 1 mps 547 mmHg 92%
    20:00 +11°C° 0.2 mm 1 mps 548 mmHg 92%
    21:00 +11°C° 0.2 mm 1 mps 548 mmHg 92%
    22:00 +10°C° 0.2 mm 1 mps 549 mmHg 92%
    23:00 +10°C° 0.1 mm 1 mps 548 mmHg 92%

    Day after tomorrow, 22 May, Tuesday

    Time Temperature Precipitation Wind Pressure Humidity
    00:00 +10°C° 0.1 mm 1 mps 548 mmHg 91%
    01:00 +10°C° 0.1 mm 1 mps 548 mmHg 91%
    02:00 +10°C° 0.1 mm 1 mps 548 mmHg 90%
    03:00 +10°C° 0.1 mm 1 mps 547 mmHg 90%
    04:00 +9°C° 0.1 mm 1 mps 547 mmHg 89%
    05:00 +10°C° 0.1 mm 1 mps 547 mmHg 86%
    06:00 +10°C° 0.1 mm 1 mps 548 mmHg 84%
    07:00 +11°C° 0.1 mm 1 mps 549 mmHg 81%
    08:00 +12°C° 0.1 mm 1 mps 549 mmHg 78%
    09:00 +13°C° 0.1 mm 2 mps 550 mmHg 75%
    10:00 +14°C° 0.1 mm 2 mps 551 mmHg 72%
    11:00 +14°C° 0.2 mm 2 mps 551 mmHg 72%
    12:00 +15°C° 0.2 mm 2 mps 551 mmHg 73%
    13:00 +15°C° 0.2 mm 2 mps 550 mmHg 74%
    14:00 +15°C° 0.5 mm 2 mps 550 mmHg 74%
    15:00 +15°C° 0.5 mm 2 mps 549 mmHg 74%
    16:00 +15°C° 0.5 mm 2 mps 549 mmHg 74%
    17:00 +14°C° 0.5 mm 1 mps 549 mmHg 80%
    18:00 +12°C° 0.5 mm 1 mps 548 mmHg 86%
    19:00 +11°C° 0.5 mm 1 mps 548 mmHg 91%
    20:00 +11°C° 0.6 mm 1 mps 548 mmHg 91%
    21:00 +11°C° 0.6 mm 1 mps 549 mmHg 90%
    22:00 +11°C° 0.6 mm 1 mps 549 mmHg 89%
    23:00 +11°C° 0.7 mm 1 mps 549 mmHg 89%

    23 May, Wednesday

    Time Temperature Precipitation Wind Pressure Humidity
    00:00 +10°C° 0.7 mm 1 mps 549 mmHg 89%
    01:00 +10°C° 0.7 mm 1 mps 549 mmHg 89%
    02:00 +10°C° 0.8 mm 1 mps 548 mmHg 89%
    03:00 +10°C° 0.8 mm 1 mps 548 mmHg 89%
    04:00 +10°C° 0.8 mm 1 mps 548 mmHg 89%
    05:00 +10°C° 0.5 mm 1 mps 548 mmHg 88%
    06:00 +10°C° 0.5 mm 1 mps 549 mmHg 87%
    07:00 +11°C° 0.5 mm 1 mps 549 mmHg 87%
    08:00 +11°C° 0.3 mm 1 mps 550 mmHg 85%
    09:00 +12°C° 0.3 mm 1 mps 550 mmHg 83%
    10:00 +13°C° 0.3 mm 2 mps 551 mmHg 81%
    11:00 +13°C° 0.4 mm 2 mps 551 mmHg 82%
    12:00 +13°C° 0.4 mm 2 mps 550 mmHg 83%
    13:00 +13°C° 0.4 mm 2 mps 550 mmHg 84%
    14:00 +13°C° 0.9 mm 2 mps 550 mmHg 85%
    15:00 +12°C° 0.9 mm 2 mps 549 mmHg 86%
    16:00 +12°C° 0.9 mm 2 mps 549 mmHg 87%
    17:00 +12°C° 0.3 mm 1 mps 549 mmHg 88%
    18:00 +11°C° 0.3 mm 1 mps 549 mmHg 90%
    19:00 +11°C° 0.3 mm 1 mps 549 mmHg 91%
    20:00 +11°C° 0.2 mm 1 mps 549 mmHg 91%
    21:00 +11°C° 0.2 mm 1 mps 550 mmHg 90%
    22:00 +11°C° 0.2 mm 1 mps 550 mmHg 89%
    23:00 +10°C° 0.1 mm 1 mps 550 mmHg 89%

    24 May, Thursday

    Time Temperature Precipitation Wind Pressure Humidity
    00:00 +10°C° 0.1 mm 1 mps 549 mmHg 89%
    01:00 +10°C° 0.1 mm 1 mps 549 mmHg 89%
    02:00 +10°C° 0.2 mm 1 mps 548 mmHg 90%
    03:00 +10°C° 0.2 mm 1 mps 548 mmHg 90%
    04:00 +10°C° 0.2 mm 1 mps 548 mmHg 91%
    05:00 +10°C° 0.1 mm 1 mps 548 mmHg 90%
    06:00 +10°C° 0.1 mm 1 mps 549 mmHg 89%
    07:00 +11°C° 0.1 mm 1 mps 550 mmHg 88%
    08:00 +12°C° 0.1 mm 1 mps 550 mmHg 85%
    09:00 +13°C° 0.1 mm 2 mps 551 mmHg 81%
    10:00 +14°C° 0.1 mm 2 mps 552 mmHg 78%
    11:00 +14°C° 0.3 mm 2 mps 552 mmHg 77%
    12:00 +14°C° 0.3 mm 2 mps 551 mmHg 77%
    13:00 +15°C° 0.3 mm 2 mps 551 mmHg 76%
    14:00 +14°C° 0.4 mm 2 mps 550 mmHg 79%
    15:00 +13°C° 0.4 mm 2 mps 550 mmHg 81%
    16:00 +13°C° 0.4 mm 2 mps 549 mmHg 84%
    17:00 +12°C° 0.3 mm 2 mps 549 mmHg 86%
    18:00 +12°C° 0.3 mm 1 mps 549 mmHg 87%
    19:00 +11°C° 0.3 mm 1 mps 549 mmHg 89%
    20:00 +11°C° 0.3 mm 1 mps 549 mmHg 89%
    21:00 +11°C° 0.3 mm 1 mps 550 mmHg 89%
    22:00 +10°C° 0.3 mm 1 mps 550 mmHg 89%
    23:00 +10°C° 0.2 mm 1 mps 549 mmHg 89%

    25 May, Friday

    Time Temperature Precipitation Wind Pressure Humidity
    00:00 +10°C° 0.2 mm 1 mps 549 mmHg 89%
    01:00 +10°C° 0.2 mm 1 mps 549 mmHg 89%
    02:00 +10°C° 0.1 mm 1 mps 548 mmHg 89%
    03:00 +10°C° 0.1 mm 1 mps 548 mmHg 88%
    04:00 +10°C° 0.1 mm 1 mps 548 mmHg 88%
    05:00 +10°C° 0.1 mm 1 mps 548 mmHg 87%
    06:00 +11°C° 0.1 mm 1 mps 549 mmHg 86%
    07:00 +11°C° 0.1 mm 1 mps 550 mmHg 85%
    08:00 +13°C° 0 mm 1 mps 550 mmHg 79%
    09:00 +14°C° 0 mm 2 mps 551 mmHg 72%
    10:00 +16°C° 0 mm 2 mps 552 mmHg 66%
    11:00 +16°C° 0.2 mm 2 mps 552 mmHg 68%
    12:00 +15°C° 0.2 mm 2 mps 551 mmHg 70%
    13:00 +15°C° 0.2 mm 2 mps 550 mmHg 73%
    14:00 +15°C° 0.5 mm 2 mps 550 mmHg 74%
    15:00 +15°C° 0.5 mm 2 mps 550 mmHg 75%
    16:00 +14°C° 0.5 mm 2 mps 549 mmHg 75%
    17:00 +13°C° 0.3 mm 2 mps 549 mmHg 81%
    18:00 +12°C° 0.3 mm 1 mps 549 mmHg 86%
    19:00 +11°C° 0.3 mm 1 mps 548 mmHg 91%
    20:00 +10°C° 0.2 mm 1 mps 548 mmHg 90%
    21:00 +10°C° 0.2 mm 1 mps 549 mmHg 89%
    22:00 +10°C° 0.2 mm 1 mps 549 mmHg 87%
    23:00 +10°C° 0.1 mm 1 mps 548 mmHg 86%
    Show more